Regional Weather Roundup
Issued by NWS Cleveland, OH

Home | Current Version | Previous Version | Graphics & Text | Print | Product List | Glossary On
Versions: 1 2 3 4 5 6 7 8 9 10 11 12 13 14 15 16 17 18 19 20 21 22 23 24 25 26 27 28 29 30 31 32 33 34 35 36 37 38 39 40 41 42 43 44 45 46 47 48 49 50
000
ASUS41 KCLE 171210
RWRCLE
OHIO REGIONAL WEATHER ROUNDUP
NATIONAL WEATHER SERVICE WILMINGTON, OH
800 AM EDT THU AUG 17 2017

NOTE: "FAIR" INDICATES FEW OR NO CLOUDS BELOW 12,000 FEET WITH NO
SIGNIFICANT WEATHER AND/OR OBSTRUCTIONS TO VISIBILITY.

OHZ001>008-015>018-024>027-034-035-043-044-171300-
   NORTHWEST OHIO

CITY           SKY/WX    TMP DP  RH WIND       PRES   REMARKS
DEFIANCE       FAIR      73  70  90 S7        29.89S FOG
FINDLAY        FAIR      76  70  82 S13       29.90S
TOLEDO EXPRESS PTSUNNY   70  70 100 SE3       29.89S FOG
TOLEDO EXEC    FAIR      74  72  93 S3        29.90S FOG
LIMA           FAIR      74  72  93 S9        29.92F
$$

OHZ009>014-019>023-028>033-038-089-171300-
   NORTHEAST OHIO

CITY           SKY/WX    TMP DP  RH WIND       PRES   REMARKS
CLE-HOPKINS    PTSUNNY   74  64  71 S9        29.97S
CLE-LAKEFRONT  PTSUNNY   73  61  65 S12       29.94S
CUY CO. ARPT   NOT AVBL
LORAIN-ELYRIA  FAIR      71  62  73 S9        29.95F
ASHTABULA      FAIR      67  60  78 SE7       30.00F
AKRON-CANTON   FAIR      72  64  76 S8        30.00S
WOOSTER        FAIR      69  67  93 CALM      29.99S
MANSFIELD      FAIR      73  69  87 S10       29.97F
YOUNGSTOWN     FAIR      67  59  75 SE8       30.01S
$$

OHZ042-051>053-060>062-070>072-077>081-171300-
  SOUTHWEST OHIO

CITY           SKY/WX    TMP DP  RH WIND       PRES   REMARKS
CINC-COVINGTON FAIR      75  74  96 S8        29.97R
CINC-LUNKEN    FAIR      75  73  93 S3        29.97R
HAMILTON       PTSUNNY   74  73  97 CALM      29.96S
DAYTON         PTSUNNY   74  71  91 S8        29.96S
WRIGHT-PAT AFB PTSUNNY   73  73 100 S5        29.96S
DAYTON GENERAL FAIR      74  71  91 S8        29.96R
WILMINGTON     PTSUNNY   73  73 100 S6        29.97F
$$

OHZ036-037-039>041-045>050-054>059-063>069-073>076-082>088-171300-
  CENTRAL AND SOUTHEAST OHIO

CITY           SKY/WX    TMP DP  RH WIND       PRES   REMARKS
COLUMBUS       LGT RAIN  74  73  97 SW5       29.97S
OSU AIRPORT    LGT RAIN  73  73 100 SW12      29.98R FOG
BOLTON FIELD   RAIN      72  72 100 W6        30.00R FOG
RICKENBACK AFB PTSUNNY   72  72  99 S6        29.97S
NEWARK         FAIR      73  70  90 CALM      29.97F FOG
MARION         FAIR      73  69  87 S8        29.96S FOG
LANCASTER      FAIR      73  71  93 S5        29.98F
ZANESVILLE     FAIR      71  68  90 SE3       29.99F FOG
NEW PHILLY     FAIR      69  67  93 CALM      30.00S
$$



USA.gov is the U.S. government's official web portal to all federal, state and local government web resources and services.